User: anonymous   Login
Location: Poughquag
(41.6090°N, 73.6820°W)
Time: 09:53:25
(UTC-04:00)
Language:

UWE-3 - Orbit

View from above orbital plane
View from above orbital plane
View from above satellite
View from above satellite

Ground track
Ground track

The orbit data is extracted from the following two-line orbital elements,

1 39446U 13066AG  20091.98898598 +.00000196 +00000-0 +32612-4 0  9992
2 39446 097.5956 085.9914 0069343 201.3837 158.4474 14.78514335341714
Epoch (UTC): 31 March 2020 23:44:08
Eccentricity: 0.0069343
inclination: 97.5956°
perigee height: 585 km
apogee height: 682 km
right ascension of ascending node: 85.9914°
argument of perigee: 201.3837°
revolutions per day: 14.78514335
mean anomaly at epoch: 158.4474°
orbit number at epoch: 34171

The dashed part of the orbit path shows where the satellite is in the earth's shadow,  

DLR